Regional Weather Roundup
Issued by NWS

Home | Current Version | Previous Version | Text Only | Print | Product List | Glossary Off
Versions: 1 2 3 4 5 6 7 8 9 10 11 12 13 14 15 16 17 18 19 20 21 22 23 24 25 26 27 28 29 30 31 32 33 34 35 36 37 38 39 40 41 42 43 44 45 46 47 48 49 50

000
ASUS43 KDTX 171310
RWRMI
MICHIGAN HOURLY REGIONAL WEATHER ROUNDUP
NATIONAL WEATHER SERVICE DETROIT/PONTIAC MI
800 AM EST SUN DEC 17 2017

NOTE: "FAIR" INDICATES FEW OR NO CLOUDS BELOW 12,000 FEET WITH NO
SIGNIFICANT WEATHER AND/OR OBSTRUCTION TO VISIBILITY.

MIZ047>049-052>055-059>063-066>070-074>076-081>083-171400-
SOUTHEAST LOWER MICHIGAN

CITY           SKY/WX    TMP DP  RH WIND       PRES   REMARKS
ADRIAN         CLOUDY    26  23  88 E7        30.17S WCI  18
ALMA           CLOUDY    24  22  91 NE9       30.21F WCI  15
ANN ARBOR      CLOUDY    25  21  85 NE6       30.17F WCI  18
BAD AXE        CLOUDY    24  20  86 E6        30.26R WCI  17
CARO           CLOUDY    25  21  85 E6        30.23S WCI  18
DETROIT CITY   CLOUDY    28  25  88 NE7       30.20F WCI  21
DETROIT        CLOUDY    30  24  78 NE6       30.19F WCI  24
FLINT          CLOUDY    24  18  77 E12       30.20F WCI  13
GROSSE ILE     CLOUDY    27  24  87 NE7       30.18S WCI  20
HILLSDALE      FOG       27  23  86 E8        30.12F VSB 3/4 WCI  18
HOWELL         CLOUDY    26  23  89 E8        30.17S WCI  17

CITY           SKY/WX    TMP DP  RH WIND       PRES   REMARKS
JACKSON        CLOUDY    26  23  88 E7        30.16R FOG     WCI  18
LAMBERTVILLE   CLOUDY    28  25  87 CALM      30.17S
LANSING        CLOUDY    23  20  88 E8        30.18S WCI  14
LAPEER         CLOUDY    25  19  79 E6        30.21F WCI  18
MASON          CLOUDY    24  19  80 E5        30.16S WCI  18
MONROE         CLOUDY    28  25  86 NE6       30.18R WCI  22
MT. CLEMENS    CLOUDY    25  22  87 NE12      30.20F WCI  14
PONTIAC        CLOUDY    24  19  81 E8        30.17F WCI  15
PORT HOPE        N/A     25  20  81 E8        30.26R WCI  16
PORT HURON     CLOUDY    23  16  74 E6        30.24F WCI  16
TRI CITIES     CLOUDY    24  22  91 E9        30.24R WCI  14
MIDLAND        CLOUDY    26  21  82 E8        30.23S WCI  17
TROY           CLOUDY    26  21  82 NE8       30.22S WCI  18
SAGINAW HB     CLOUDY    27  21  80 E8        30.23S WCI  18
$$
MIZ043>046-050>051-056>058-064>065-071>073-077>080-171400-
SOUTHWEST LOWER MICHIGAN

CITY           SKY/WX    TMP DP  RH WIND       PRES   REMARKS
BATTLE CREEK   FOG       27  26  96 E8        30.13S VSB 1   WCI  19
BENTON HARBOR  CLOUDY    26  22  84 E8        30.09F FOG     WCI  18
BIG RAPIDS     CLOUDY    21  18  88 SE8       30.18S WCI  12
COLDWATER      CLOUDY    27  27 100 E9        30.11F FOG     WCI  18
HOLLAND        CLOUDY    23  21  92 E12       30.14S FOG     WCI  12
GRAND RAPIDS   CLOUDY    22  21  96 E13       30.15S WCI  10
IONIA          CLOUDY    23  21  93 E10       30.16S WCI  12
KALAMAZOO      FOG       27  26  96 E6        30.12S VSB 1   WCI  20
LUDINGTON      CLOUDY    24  20  85 E6        30.17S WCI  16
MARSHALL       CLOUDY    26  25  98 E8        30.14R FOG     WCI  17
MOUNT PLEASANT CLOUDY    23  19  83 NE5       30.21S WCI  17
MUSKEGON       CLOUDY    24  19  81 E12G20    30.14F WCI  13
SOUTH HAVEN    CLOUDY    26  23  90 E7        30.10F FOG     WCI  18
$$
MIZ016>042-171400-
NORTHERN LOWER MICHIGAN

CITY           SKY/WX    TMP DP  RH WIND       PRES   REMARKS
ALPENA         CLOUDY    19  16  88 N3        30.27R
BEAVER ISLAND  CLOUDY    19  15  85 E6        30.24S WCI  11
BELLAIRE       CLOUDY    19  18  96 CALM      30.25F
CADILLAC       CLOUDY    18  17  96 E6        30.16F WCI   9
CHARLEVOIX     CLOUDY    14  12  92 SE6       30.28S WCI   5
FRANKFORT      MOCLDY    22  19  87 E8        30.19F WCI  12
GAYLORD        CLOUDY    14  11  87 SE5       30.19F WCI   6
GRAYLING       CLOUDY    15  12  85 E5        30.21F WCI   8
HARBOR SPRINGS CLOUDY    12   8  85 NE5       30.25S WCI   4
HOUGHTON LAKE  CLOUDY    17  15  92 E6        30.21R WCI   9
MANISTEE       CLOUDY    23  19  85 E12       30.18F WCI  12
OSCODA         CLOUDY    20  15  81 N3        30.26S
PELLSTON       CLOUDY    -2  -5  87 CALM      30.27R
ROGERS CITY    CLOUDY    19  16  88 S3        30.28S
TRAVERSE CITY  CLOUDY    19  16  88 E5        30.22F WCI  12
$$
MIZ007>008-015-171400-
EASTERN UPPER MICHIGAN

CITY           SKY/WX    TMP DP  RH WIND       PRES   REMARKS
KINROSS        FLURRIES   3   0  87 E7        30.28R WCI  -9
MACKINAC ISLAN CLOUDY    17  13  87 E7        30.26R FOG     WCI   7
NEWBERRY       CLOUDY     6   5  97 SE5       30.23R WCI  -3
S. S. MARIE    CLOUDY     1  -1  91 E6        30.29R FOG     WCI -10
MUNISING         N/A     13  11  92 S8        30.20S WCI   2
$$
MIZ004>006-011>014-085-171400-
CENTRAL UPPER MICHIGAN

CITY           SKY/WX    TMP DP  RH WIND       PRES   REMARKS
MANISTIQUE     CLOUDY    14   9  81 NE3       30.22F
ESCANABA       CLOUDY    18  15  88 NE3       30.20F
MENOMINEE      CLOUDY    22  19  89 E9        30.17F WCI  12
SAWYER-GWINN   CLOUDY    14  10  85 S7        30.15S WCI   4
$$
MIZ001>003-009>011-084-171400-
WESTERN UPPER MICHIGAN

CITY           SKY/WX    TMP DP  RH WIND       PRES   REMARKS
IRON MOUNTAIN  CLOUDY    18  13  80 CALM      30.14F
HOUGHTON       CLOUDY    20  15  81 S9        30.11F WCI   9
COPPER HARBOR    N/A     25  20  81 SW8       30.14F WCI  16
IRONWOOD       CLOUDY    22  20  92 S3        30.11R
$$

ABBREVIATIONS USED IN REMARKS
   TC - TEMPERATURE IN CELSIUS
  WCI - WIND CHILL INDEX
   HX - HEAT INDEX
  VSB - VISIBILITY




USA.gov is the U.S. government's official web portal to all federal, state and local government web resources and services.